Location: St. Louis
(38.6270°N, 90.1994°W)
Time: 10:40:59
(UTC-06:00)

A-11 Canister half - Pass Details

Date: 15 December 2021
Orbit: 1524 x 1684 km, 47.3° (Epoch: 25 January)

Event Time Altitude Azimuth Distance (km) Brightness Sun altitude
Rises 01:08:19 0° 278° (W) 4,925 - -68.3°
Reaches altitude 10° 01:11:38 10° 283° (WNW) 3,944 - -67.8°
Maximum altitude 01:21:31 52° 359° (N) 2,011 - -66.2°
Exits shadow 01:30:56 11° 74° (ENE) 3,804 11.3 -64.6°
Drops below altitude 10° 01:31:19 10° 74° (ENE) 3,914 11.4 -64.6°
Sets 01:34:36 0° 80° (E) 4,885 12.0 -64.0°
